FW1098 Weather Reports


time (UTC)temp
F
wind
direction
speed
knots
gust
knots
rain 1hr
in
rain 24hr
in
rain mn
in
humidity
%
barometer
mb
20260506030056 65 311 0.0 0.9 0.00 0.00 0.00 71 1015.8
20260506024556 66 311 0.0 0.9 0.00 0.00 0.00 71 1015.7
20260506023054 66 311 0.0 0.9 0.00 0.00 0.00 71 1015.6
20260506021557 66 311 0.0 0.9 0.00 0.00 0.00 72 1015.7
20260506020054 67 311 0.0 0.0 0.00 0.00 0.00 72 1015.7
20260506014557 67 311 0.0 0.9 0.00 0.00 0.00 71 1015.6
20260506013053 67 311 0.0 1.7 0.00 0.00 0.00 69 1015.3
20260506011553 67 311 0.0 0.0 0.00 0.00 0.00 66 1015.1
20260506010052 68 311 0.0 1.7 0.00 0.00 0.00 64 1014.9
20260506004556 69 311 0.0 0.0 0.00 0.00 0.00 61 1014.6
20260506003052 70 311 0.0 0.0 0.00 0.00 0.00 61 1014.1
20260506001609 70 311 0.0 0.0 0.00 0.00 0.00 63 1014.1
20260506000050 71 311 0.0 0.0 0.00 0.00 0.00 60 1014.2
20260505234552 73 311 0.0 0.9 0.00 0.00 0.00 57 1014.4
20260505233055 75 311 0.0 1.7 0.00 0.00 0.00 52 1014.3
20260505231554 77 311 0.0 2.6 0.00 0.00 0.00 46 1014.3
20260505230051 78 255 0.0 2.6 0.00 0.00 0.00 44 1014.3
20260505224549 79 275 0.0 7.0 0.00 0.00 0.00 44 1014.6
20260505223055 81 242 2.6 7.0 0.00 0.00 0.00 40 1014.3
20260505221551 81 261 0.9 3.5 0.00 0.00 0.00 43 1014.2
20260505220047 82 198 0.9 2.6 0.00 0.00 0.00 40 1014.3
20260505214558 82 260 0.9 5.2 0.00 0.00 0.00 41 1014.1
20260505213054 81 262 2.6 9.6 0.00 0.00 0.00 42 1014.4
20260505211542 82 205 0.9 6.1 0.00 0.00 0.00 41 1014.6
20260505210040 80 259 0.9 4.3 0.00 0.00 0.00 42 1014.7
20260505204540 81 118 2.6 8.7 0.00 0.00 0.00 40 1014.8
20260505203045 83 246 1.7 5.2 0.00 0.00 0.00 40 1014.7
20260505201548 82 156 3.5 11.3 0.00 0.00 0.00 40 1015.0
20260505200035 82 28 0.9 4.3 0.00 0.00 0.00 41 1015.0
20260505194536 80 257 0.9 5.2 0.00 0.00 0.00 42 1015.2
20260505193044 81 257 1.7 5.2 0.00 0.00 0.00 45 1015.5
20260505191534 80 252 1.7 5.2 0.00 0.00 0.00 40 1015.5
20260505190038 80 262 0.9 7.0 0.00 0.00 0.00 42 1015.7
20260505184527 81 268 3.5 11.3 0.00 0.00 0.00 39 1016.4
20260505183043 80 314 0.9 4.3 0.00 0.00 0.00 43 1016.6
20260505181526 81 146 2.6 11.3 0.00 0.00 0.00 45 1016.9
20260505180034 81 204 0.9 6.1 0.00 0.00 0.00 42 1016.9
20260505174531 80 255 0.9 3.5 0.00 0.00 0.00 45 1016.7
20260505173034 80 75 2.6 8.7 0.00 0.00 0.00 41 1016.6
20260505171528 79 66 0.9 9.6 0.00 0.00 0.00 43 1016.9
20260505170018 79 215 0.9 6.1 0.00 0.00 0.00 44 1017.2
20260505164530 78 219 2.6 7.0 0.00 0.00 0.00 46 1017.4
20260505163022 79 209 1.7 7.0 0.00 0.00 0.00 47 1017.5
20260505161513 78 303 0.0 7.0 0.00 0.00 0.00 53 1017.4
20260505153005 75 235 0.0 6.1 0.00 0.00 0.00 61 1017.9
20260505151559 74 220 1.7 5.2 0.00 0.00 0.00 61 1017.9
20260505150114 73 282 1.7 4.3 0.00 0.00 0.00 63 1017.8
20260505124525 56 227 1.7 3.5 0.00 0.00 0.00 96 1017.9
20260505123039 53 319 0.0 1.7 0.00 0.00 0.00 95 1017.7
20260505121526 50 319 0.0 0.0 0.00 0.00 0.00 94 1017.7
20260505120028 49 319 0.0 0.0 0.00 0.00 0.00 92 1017.6
20260505114522 48 319 0.0 0.0 0.00 0.00 0.00 92 1017.5
20260505113018 47 319 0.0 0.0 0.00 0.00 0.00 91 1017.5
20260505111518 47 22 0.0 0.0 0.00 0.00 0.00 91 1017.4
20260505101509 48 244 0.0 0.0 0.00 0.00 0.00 90 1016.9
20260505100008 48 244 0.0 0.0 0.00 0.00 0.00 90 1016.8
20260505094506 49 244 0.0 0.0 0.00 0.00 0.00 90 1016.8
20260505093005 49 244 0.0 0.0 0.00 0.00 0.00 89 1016.7
20260505091503 49 244 0.0 0.0 0.00 0.00 0.00 89 1016.6
20260505090006 49 244 0.0 0.0 0.00 0.00 0.00 88 1016.6
20260505084502 50 244 0.0 0.0 0.00 0.00 0.00 88 1016.6
20260505083110 50 244 0.0 0.0 0.00 0.00 0.00 87 1016.6
20260505081602 50 244 0.0 0.0 0.00 0.00 0.00 86 1016.5
20260505080058 51 244 0.0 0.0 0.00 0.00 0.00 85 1016.5
20260505074555 51 244 0.0 0.0 0.00 0.00 0.00 84 1016.4
20260505073059 52 244 0.0 0.0 0.00 0.00 0.00 84 1016.2
20260505071555 52 244 0.0 0.0 0.00 0.00 0.00 84 1016.3
20260505070054 53 244 0.0 0.0 0.00 0.00 0.00 84 1016.2
20260505064548 53 244 0.0 0.0 0.00 0.00 0.00 83 1016.4
20260505063046 54 244 0.0 0.0 0.00 0.00 0.00 83 1016.4
20260505061542 54 244 0.0 0.0 0.00 0.00 0.00 83 1016.6
20260505060040 55 244 0.0 0.0 0.00 0.00 0.00 82 1016.8
20260505054539 55 244 0.0 0.0 0.00 0.00 0.00 80 1016.9
20260505053037 56 244 0.0 0.0 0.00 0.00 0.00 80 1016.9
20260505051537 56 244 0.0 0.0 0.00 0.00 0.00 79 1016.9
20260505050109 57 244 0.0 0.0 0.00 0.00 0.00 80 1017.0
20260505041546 58 244 0.0 0.0 0.00 0.00 0.00 78 1017.0
20260505040028 58 244 0.0 0.0 0.00 0.00 0.00 78 1017.0
20260505034526 59 244 0.0 0.0 0.00 0.00 0.00 77 1017.0
20260505033026 59 244 0.0 0.0 0.00 0.00 0.00 76 1017.2
20260505031525 59 244 0.0 0.0 0.00 0.00 0.00 75 1017.2